FENGYUN 1C DEB, 30715

Orbit data source: Space-Track

FENGYUN 1C DEB, 30715 is space debris in SSO originally from a launch on Mon, 10 May 1999 UTC launched from the Taiyaun Space Center, China (TSC). Fengyun 1C debris stems from the Chinese weather satellite Fengyun-1C, which was intentionally destroyed by a Chinese anti-satellite missile in 2007. This event dramatically increased the amount of space debris, with thousands of trackable fragments posing hazards to satellites and human spaceflight. The Fengyun 1C debris cloud has become a focal point in discussions about space sustainability and the need for international regulations to prevent the creation of new debris.

Loading next visibility...
Identifier
30715, 1999-025ARZ
Orbit
SSO
Country
Flag of CNCN / PRC
Related business
Manufacturer
Unknown
Mission
Spacecraft
Bus & Motor
Unknown
Mass
Unknown
Launch date (UTC)
1999-05-10 (27 years ago)
Launch vehicle
Unknown
Launch site
Taiyaun Space Center, China (TSC)
Object type
Payload
Rocket body
Debris
Shape & HBR
Unknown shape, 0.1 m
Radar Cross Section
Medium (>0.1 m² and <1 m²)

Expand to show TLE details & history
Last TLE update: 21 hours ago

TLE from 21 hours ago
0 FENGYUN 1C DEB
1 30715U 99025ARZ 26256.17683600  .00001816  00000-0  92100-3 0  9994
2 30715  98.9600 331.9013 0066497 109.8690 250.9666 14.16123104   585
Epoch: 2026-09-13T04:14Z
TLE epoch observation values (Epoch: 2026-09-13T04:14:38.630Z)
Latitude
Longitude
-83.93489°
Altitude
857.333 km
Speed
7.416 km/s
True Right ascension
22h 07m 36s
True Declination
0° 00' 00"
Sunlit
Object was in full shadow at epoch
Visualization orbit readout
Latitude
Unknown
Longitude
Unknown
Altitude
Unknown
Speed
Unknown
Apparent Right ascension
Unknown
Apparent Declination
Unknown
Sunlit
N/A
Visualization observer readout
Local Sidereal Time
17:48:04
Azimuth
Unknown
Elevation
Unknown
Doppler factor
Unknown
Orbital elements
Apogee altitude
883.639 km
Perigee altitude
787.7 km
Semi-major axis
7,213.807 km
Eccentricity
0.00665
Inclination
98.96°
RAAN
331.9013°
Arg. of periapsis
109.869°
True anomaly
250.24823°
Mean anomaly
250.9666°
Eccentric anomaly
250.60722°
Mean motion
3.54239 °/min
Orbital period
101.63 mins
BSTAR
0.000921
Loading maneuver chart data...
Computing Atmospheric mass density...
Loading historical data...
Loading historical data...
Loading historical data...
Loading historical data...
Loading historical data...
Loading historical data...
Loading historical data...

Documentation

Showing up to 5 results
|